KZ-1A R/B (44778 NORAD) Tracking and Keplerian Element Data

This shows tracking and keplerian element data for the satellite.

Feedback or suggestion? Click here.




ElementValue
Catalog44778
NameKZ-1A R/B
Epoch Orbit107
Epoch Day323.98891073
Epoch Year2019
RAAN29.361
Inclination97.4584
Eccentricity0.0059827
Argument of Perigee359.7691
Mean Anonmoly0.9894
Mean Motion16.44036266
Decay Rate0.18188495
L11 44778U 19075B 19323.98891073 .18188495 34921-5 17706-3 0 9997
L22 44778 97.4584 29.3610 0059827 359.7691 0.9894 16.44036266 1077

Live tracking and technical data element details for KZ-1A R/B (NORAD 44778). KZ-1A R/B can be tracked NOW for your location showing map with azimuth and elevation plus other details from your city location.

Track the satellite on the map from your city or location and see movement details for azimuth, elevation, latitude, longitude, range, height, and movement on the map or in text.







IsCatalogInMostPopularTable: catalog: 44778, numindb: 2
Update: records affected: 1



GetName: 44778 KZ-1A R/B

Hit Count: updated at: Thu, 12 Dec 2019 00:17:50 GMT